Location: Ústí nad Labem
(50.6611°N, 14.0531°E)
Time: 04:57:39
(UTC+02:00)

SR - Visible Passes

Search period start: 22 April 2024 00:00
Search period end: 02 May 2024 00:00
Orbit: 577 x 862 km, 66.7° (Epoch: 21 April)

Date Brightness Start Highest point End Pass type
(mag) Time Alt. Az. Time Alt. Az. Time Alt. Az.
22 Apr ? 01:52:25 33° ESE 01:52:25 33° ESE 01:56:44 10° NE visible
22 Apr ? 03:31:38 31° WSW 03:33:55 53° NW 03:38:51 10° NNE visible
22 Apr ? 05:13:20 10° WNW 05:16:51 18° NNW 05:20:13 10° NNE visible
23 Apr ? 01:01:29 17° E 01:01:29 17° E 01:03:47 10° ENE visible
23 Apr ? 02:40:42 60° SW 02:41:42 90° ESE 02:46:47 10° NE visible
23 Apr ? 04:19:56 10° W 04:24:12 25° NNW 04:28:17 10° NNE visible
24 Apr ? 01:49:44 50° ESE 01:49:44 50° ESE 01:54:33 10° NE visible
24 Apr ? 03:28:57 22° W 03:31:41 37° NW 03:36:19 10° NNE visible
24 Apr ? 05:12:03 10° NW 05:14:55 15° NNW 05:17:40 10° NNE visible
25 Apr ? 00:58:43 26° E 00:58:43 26° E 01:02:00 10° ENE visible
25 Apr ? 02:37:56 45° WSW 02:39:20 62° NW 02:44:19 10° NNE visible
25 Apr ? 04:18:25 10° WNW 04:22:08 19° NNW 04:25:40 10° NNE visible
26 Apr ? 00:07:39 13° E 00:07:39 13° E 00:08:43 10° ENE visible
26 Apr ? 01:46:51 74° SSE 01:47:08 77° SE 01:52:10 10° NE visible
26 Apr ? 03:26:03 15° W 03:29:30 28° NW 03:33:43 10° NNE visible
26 Apr ? 05:10:45 10° NW 05:12:59 13° NNW 05:15:10 10° NNE visible
27 Apr ? 00:55:44 40° E 00:55:44 40° E 00:59:51 10° NE visible
27 Apr ? 02:34:56 29° W 02:37:00 42° NW 02:41:44 10° NNE visible
27 Apr ? 04:17:02 10° WNW 04:20:07 16° NNW 04:23:03 10° NNE visible
28 Apr ? 00:04:33 21° E 00:04:33 21° E 00:07:08 10° ENE visible
28 Apr ? 01:43:45 58° WSW 01:44:40 72° NW 01:49:40 10° NE visible
28 Apr ? 03:23:25 10° W 03:27:20 21° NNW 03:31:03 10° NNE visible
29 Apr ? 00:52:30 65° ESE 00:52:30 65° ESE 00:57:27 10° NE visible
29 Apr ? 02:31:41 18° W 02:34:43 31° NW 02:39:04 10° NNE visible
29 Apr ? 04:15:41 10° NW 04:18:06 13° NNW 04:20:26 10° NNE visible
30 Apr ? 00:01:10 34° E 00:01:10 34° E 00:05:01 10° NE visible
30 Apr ? 01:40:21 33° W 01:42:15 49° NW 01:47:02 10° NNE visible
30 Apr ? 03:21:56 10° WNW 03:25:13 17° NNW 03:28:21 10° NNE visible
30 Apr ? 23:09:46 18° E 23:09:46 18° E 23:12:05 10° ENE visible
01 May ? 00:48:57 60° SW 00:49:55 84° NW 00:54:55 10° NE visible
01 May ? 02:28:20 10° W 02:32:28 23° NNW 02:36:20 10° NNE visible
01 May ? 04:14:14 10° NNW 04:16:05 12° N 04:17:53 10° NNE visible
